Flag for Turkey Weather past 2 weeks in Ankara, Turkey

Now
55 °F

Sprinkles. Passing clouds.


Feels Like: 54 °F
Forecast: 53 / 70 °F
Wind: 7 mph from North

Location: Ankara / Esenboga

Current Time: Jun 4, 2015 at 3:02:06 AM

Latest Report: Jun 4, 2015 at 2:20 AM


Visibility: N/A

Pressure: 30.01 "Hg

Humidity: 94%

Dew point: 54 °F

Location of AnkaraLocation

Historic Weather in Ankara — Graph

°F

Ankara temperature yesterday

Maximum temperature yesterday: 73 °F (at 3:20 PM)
Minimum temperature yesterday: 55 °F (at 8:20 PM)
Average temperature yesterday: 62 °F

Past Weeks' High & Low Weather Summary

 TemperatureHumidityPressure
High86 °F (May 20, 1:50 PM)100% (May 30, 5:20 AM)30.12 "Hg (May 30, 5:20 AM)
Low46 °F (May 24, 5:20 AM)13% (May 20, 3:20 PM)29.68 "Hg (May 27, 5:50 PM)
Average62 °F66%29.92 "Hg
* Reported May 20 1:20 AM — Jun 4 1:50 AM, Ankara, Weather by CustomWeather, © 2015

Note: Actual official high and low records may vary slightly from our data, if they occured in-between our weather recording intervals... More about our weather records

Advertising

Ankara weather history for previous 24 hours

 ConditionsComfort  
Time TempWeatherWind HumidityBarometerVisibility
1:50 AM
Thu, Jun 4
55 °FSprinkles. Passing clouds.6 mph94%30.01 "HgN/A
1:20 AM55 °FPassing clouds.7 mph94%30.01 "HgN/A
12:50 AM55 °FPassing clouds.5 mph94%30.01 "HgN/A
12:20 AM57 °FPassing clouds.6 mph82%30.01 "HgN/A
11:50 PM
Wed, Jun 3
57 °FPassing clouds.7 mph82%30.04 "HgN/A
11:20 PM55 °FPassing clouds.7 mph88%30.04 "HgN/A
10:50 PM55 °FPassing clouds.10 mph94%30.04 "HgN/A
10:20 PM55 °FThunderstorms. Partly cloudy.8 mph94%30.04 "HgN/A
9:50 PM55 °FThunderstorms. Partly cloudy.6 mph88%30.07 "HgN/A
9:20 PM57 °FThunderstorms. Partly cloudy.7 mph88%30.07 "HgN/A
8:50 PM55 °FThunderstorms. Broken clouds.7 mph88%30.04 "HgN/A
8:20 PM55 °FThunderstorms. Broken clouds.10 mph88%30.01 "HgN/A
7:50 PM59 °FThunderstorms. Broken clouds.12 mph72%30.04 "HgN/A
7:20 PM59 °FThunderstorms. Broken clouds.8 mph72%30.01 "HgN/A
7:01 PM61 °FThunderstorms. Broken clouds.18 mph68%30.01 "Hg5 mi
6:20 PM68 °FThunderstorms. Broken clouds.8 mph64%29.98 "HgN/A
5:50 PM70 °FThunderstorms. Broken clouds.9 mph57%29.95 "HgN/A
5:20 PM72 °FThunderstorms. Partly sunny.13 mph50%29.98 "HgN/A
4:50 PM73 °FPartly sunny.5 mph47%29.98 "HgN/A
4:20 PM72 °FPartly sunny.9 mph50%29.98 "HgN/A
3:50 PM72 °FPartly sunny.9 mph50%29.98 "HgN/A
3:20 PM73 °FBroken clouds.9 mph47%30.01 "HgN/A
2:50 PM70 °FBroken clouds.13 mph53%30.01 "HgN/A
2:20 PM70 °FBroken clouds.13 mph69%30.04 "HgN/A
1:50 PM72 °FBroken clouds.13 mph50%30.04 "HgN/A
1:20 PM70 °FBroken clouds.12 mph60%30.04 "HgN/A
12:50 PM68 °FBroken clouds.12 mph60%30.07 "HgN/A
12:20 PM66 °FBroken clouds.14 mph68%30.07 "HgN/A
11:50 AM66 °FPartly sunny.12 mph68%30.07 "HgN/A
11:20 AM64 °FBroken clouds.13 mph73%30.07 "HgN/A
10:50 AM64 °FBroken clouds.15 mph73%30.07 "HgN/A
10:20 AM64 °FBroken clouds.16 mph68%30.07 "HgN/A
9:50 AM63 °FBroken clouds.15 mph73%30.09 "HgN/A
9:20 AM63 °FBroken clouds.12 mph73%30.07 "HgN/A
8:50 AM63 °FBroken clouds.10 mph73%30.09 "HgN/A
8:20 AM61 °FBroken clouds.5 mph77%30.09 "HgN/A
7:50 AM61 °FBroken clouds.5 mph72%30.09 "HgN/A
7:20 AM59 °FBroken clouds.3 mph77%30.07 "HgN/A
6:50 AM59 °FBroken clouds.2 mph82%30.07 "HgN/A
6:20 AM57 °FBroken clouds.1 mph88%30.07 "HgN/A
5:50 AM57 °FPartly cloudy.5 mph82%30.07 "HgN/A
5:20 AM57 °FPartly cloudy.2 mph82%30.07 "HgN/A
4:50 AM57 °FPartly cloudy.2 mph82%30.07 "HgN/A
4:20 AM57 °FPartly cloudy.3 mph82%30.07 "HgN/A
3:50 AM57 °FPartly cloudy.3 mph82%30.07 "HgN/A
3:20 AM57 °FPartly cloudy.3 mph82%30.07 "HgN/A
Weather by CustomWeather, © 2015

See weather overviewHow to use our weather pages